Location: ????????
(55.3939°N, 37.4780°E)
Time: 21:21:04
(UTC+00:00)

Cosmos 2098 Rocket - Pass Details

Date: 14 April 2026
Orbit: 347 x 842 km, 82.9° (Epoch: 11 May)

Event Time Altitude Azimuth Distance (km) Brightness Sun altitude
Exits shadow 23:52:43 32° 235° (SW) 1,406 4.3 -18.5°
Maximum altitude 23:54:58 49° 289° (WNW) 1,083 4.1 -18.3°
Drops below altitude 10° 00:00:31 10° 4° (N) 2,484 6.9 -17.8°
Sets 00:03:03 0° 10° (N) 3,409 7.9 -17.5°
